Regional Weather Roundup
Issued by NWS

Home | Current Version | Previous Version | Graphics & Text | Print | Product List | Glossary On
Versions: 1 2 3 4 5 6 7 8 9 10 11 12 13 14 15 16 17 18 19 20 21 22 23 24 25 26 27 28 29 30 31 32 33 34 35 36 37 38 39 40 41 42 43 44 45 46 47 48 49 50
000
ASUS43 KDMX 121601
RWRIA

WEATHER ROUNDUP FOR IOWA
NATIONAL WEATHER SERVICE DES MOINES IA
1000 AM CST TUE DEC 12 2017

NOTE: "FAIR" INDICATES FEW OR NO CLOUDS BELOW 12,000 FEET WITH NO
SIGNIFICANT WEATHER AND/OR OBSTRUCTIONS TO VISIBILITY.

* - THESE STATIONS ARE NOT NWS STATIONS...THUS NOT UNDER NWS
QUALITY CONTROL.  THEY ALSO DO NOT REPORT WEATHER SUCH
AS PRECIPITATION OR FOG.

IAZ001>003-012>014-020>022-031>034-043>046-121700-
   NORTHWEST IOWA

CITY           SKY/WX    TMP DP  RH WIND       PRES   REMARKS
CARROLL *      CLOUDY    23  14  68 NW10      30.26S WCI  12
CHEROKEE *     SUNNY     20  17  85 W5        30.24F WCI  14
DENISON *      SUNNY     19  16  86 SW5       30.28F WCI  13
LE MARS *      CLOUDY    21  18  86 S6        30.24F WCI  14
ORANGE CITY *  CLOUDY    21  21 100 SW8       30.21F WCI  12
SHELDON *      CLOUDY    21  18  86 SW8       30.19F WCI  12
SIOUX CITY     CLOUDY    21  18  88 CALM      30.27F
SPENCER        SUNNY     20  15  81 W7        30.21F WCI  11
STORM LAKE *   SUNNY     19  14  79 W8        30.21F WCI   9
$$

IAZ055>058-069>071-079>083-090>094-121700-
   SOUTHWEST IOWA

CITY           SKY/WX    TMP DP  RH WIND       PRES   REMARKS
ATLANTIC *     SUNNY     21  16  79 NW8       30.30S WCI  12
AUDUBON *      SUNNY     21  16  79 NW3       30.27S
CLARINDA *     SUNNY     23  16  74 NW8         N/A  WCI  14
COUNCIL BLFS * SUNNY     23  19  86 NW5       30.31S WCI  17
CRESTON *      SUNNY     21  14  73 NW10      30.30S WCI  10
HARLAN  *      SUNNY     21  16  79 NW8       30.32F WCI  12
LAMONI         SUNNY     22  10  60 NW9       30.29R WCI  12
RED OAK *      SUNNY     25  16  68 NW6       30.33S WCI  18
SHENANDOAH *   SUNNY     23  18  80 W7        30.35S WCI  15
$$

IAZ047>049-059>061-072>074-084-121700-
   CENTRAL IOWA

CITY           SKY/WX    TMP DP  RH WIND       PRES   REMARKS
AMES           SUNNY     19  10  68 NW10      30.27S WCI   7
ANKENY *       SUNNY     19   9  63 NW8       30.30S WCI   9
BOONE *        MOSUNNY   19   7  58 N10       30.25S WCI   8
CHARITON *     SUNNY     19  10  68 NW12      30.28R WCI   7
DES MOINES     PTSUNNY   20   9  62 NW9       30.28F WCI   9
GRINNELL*      SUNNY     18   9  68 NW14G20   30.26R WCI   4
KNOXVILLE *    SUNNY     19   7  58 NW12      30.27R WCI   7
MARSHALLTOWN   MOSUNNY   17   8  67 W14       30.25R WCI   3
NEWTON *       SUNNY     19   9  63 NW13      30.27S WCI   7
PELLA *        SUNNY     20   9  62 NW13      30.29R WCI   7
PERRY *          N/A     20  11  69 W8        30.28S WCI  10
$$

IAZ004>006-015-016-023>025-035-036-121700-
   NORTH CENTRAL IOWA

CITY           SKY/WX    TMP DP  RH WIND       PRES   REMARKS
ALGONA *       SUNNY     19  14  79 W6        30.23R WCI  11
CLARION *      SUNNY     18   7  62 NW12      30.24F WCI   5
ESTHERVILLE    SUNNY     19  13  77 W7        30.19F WCI  10
FORT DODGE *   MOSUNNY   19  11  70 W10       30.25S WCI   7
FOREST CITY *    N/A     18   9  68 W9        30.21F WCI   6
WEBSTER CITY * SUNNY     18   9  68 NW13      30.24S WCI   4
IOWA FALLS *     N/A     16   9  72 W13       30.25R WCI   3
$$

IAZ007>011-017>019-026>030-037>042-050>054-066-121700-
   NORTHEAST IOWA

CITY           SKY/WX    TMP DP  RH WIND       PRES   REMARKS
CEDAR RAPIDS   MOSUNNY   17   9  70 NW16      30.22R WCI   2
CHARLES CITY * SUNNY     14   7  73 NW8       30.22S WCI   3
CLINTON *      SUNNY     20  12  71 NW17      30.20R WCI   5
DECORAH *      MOSUNNY   12   5  73 NW7       30.16F WCI   2
DUBUQUE        SUNNY     15   7  70 NW16      30.16R WCI  -1
MONTICELLO *   MOSUNNY   18   9  68 NW12      30.21R WCI   5
OELWEIN *      MOSUNNY   16   9  73 NW14      30.21R WCI   1
WATERLOO       MOSUNNY   16   6  65 NW13      30.24R WCI   2
$$

IAZ064-065-067-068-078-121700-
   EAST CENTRAL IOWA

CITY           SKY/WX    TMP DP  RH WIND       PRES   REMARKS
DAVENPORT      SUNNY     19  11  70 NW12      30.22R WCI   7
IOWA CITY      MOSUNNY   20   9  62 NW13      30.26R WCI   7
MT. PLEASANT * SUNNY     20  10  63 W9        30.25R WCI  10
MUSCATINE *    MOSUNNY   21  10  63 NW10G18   30.25R WCI  10
QUAD CITIES    SUNNY     22  12  65 W15       30.21R WCI   9
$$

IAZ062-063-075>077-085>089-095>099-121700-
   SOUTHEAST IOWA

CITY           SKY/WX    TMP DP  RH WIND       PRES   REMARKS
BURLINGTON     SUNNY     21  12  68 NW13      30.24R WCI   9
FAIRFIELD *    SUNNY     19   7  58 NW15      30.25S WCI   5
FORT MADISON * SUNNY     21  12  68 NW10      30.25R WCI  10
KEOKUK *       SUNNY     23  10  58 NW9       30.25S WCI  13
OSKALOOSA *      N/A     19   8  62 NW12      30.27S WCI   7
OTTUMWA        SUNNY     21   6  52 NW15      30.27R WCI   8
WASHINGTON *   MOSUNNY   19  12  73 NW10      30.26R WCI   8
$$

ABBREVIATIONS USED IN REMARKS
   TC - TEMPERATURES IN CELSIUS
  WCI - WIND CHILL INDEX
   HX - HEAT INDEX
  VSB - VISIBILITY
$$




USA.gov is the U.S. government's official web portal to all federal, state and local government web resources and services.